User: anonymous   Login
Location: Znojmo
(48.8500°N, 16.0500°E)
Time: 09:34:50
(UTC+02:00)
Language:

ISS - Orbit

View from above orbital plane
View from above orbital plane
View from above satellite
View from above satellite

Ground track
Ground track

The orbit data is extracted from the following two-line orbital elements,

1 25544U 98067A   19144.39632340  .00016717  00000-0  10270-3 0  9051
2 25544  51.6405 119.3734 0007145 329.5529  30.5206 15.51178791 11556
Epoch (UTC): 24 May 2019 09:30:42
Eccentricity: 0.0007145
inclination: 51.6405°
perigee height: 408 km
apogee height: 418 km
right ascension of ascending node: 119.3734°
argument of perigee: 329.5529°
revolutions per day: 15.51178791
mean anomaly at epoch: 30.5206°
orbit number at epoch: 1155

The dashed part of the orbit path shows where the satellite is in the earth's shadow,  

DLR